CSS (TIANHE-1), 48274

Orbit data source: Space-Track

The Chinese Space Station (CSS), known as Tiangong or "Heavenly Palace," is China's independently developed space station that represents a significant step in China’s space exploration capabilities. Launched in phases starting with the Tianhe module in 2021, the station operates in low Earth orbit (LEO). It aims to support a variety of scientific experiments in fields such as space medicine, astronomy, and technology development.

Loading next visibility...
Identifier
48274, 2021-035A
Orbit
LEO
Country
Flag of CNCN / PRC
Related business
Manufacturer
CAST
Mission
Operational Civil Spaceship
Bus & Motor
TIANHE, Unknown motor
Mass
22,500 kg wet, ~20,838 kg dry
Launch date (UTC)
2021-04-29 (5 years ago)
Launch vehicle
CHANG ZHENG 5B
Launch site
Wenchang Satellite Launch Center (WSC)
Object type
Payload
Rocket body
Debris
Shape & HBR
Irr, 27.5 m
Radar Cross Section
2905.500 m², Large (>1 m²)

Expand to show TLE details & history
Last TLE update: 15 hours ago

TLE from 15 hours ago
0 CSS (TIANHE-1)
1 48274U 21035A   26037.47343961  .00022506  00000-0  28124-3 0  9996
2 48274  41.4680  37.9008 0005397  13.3696 346.7284 15.59287012272734
Epoch: 2026-02-06T11:21Z
TLE epoch observation values (Epoch: 2026-02-06T11:21:45.182Z)
Latitude
-0.00004°
Longitude
90.85168°
Altitude
385.765 km
Speed
7.683 km/s
True Right ascension
02h 31m 36s
True Declination
0° 00' 00"
Sunlit
Object was in daylight at epoch
Visualization orbit readout
Latitude
Unknown
Longitude
Unknown
Altitude
Unknown
Speed
Unknown
Apparent Right ascension
Unknown
Apparent Declination
Unknown
Sunlit
N/A
Visualization observer readout
Local Sidereal Time
04:03:34
Azimuth
Unknown
Elevation
Unknown
Doppler factor
Unknown
Orbital elements
Apogee altitude
395.605 km
Perigee altitude
388.297 km
Semi-major axis
6,770.088 km
Eccentricity
0.00054
Inclination
41.468°
RAAN
37.9008°
Arg. of periapsis
13.3696°
True anomaly
346.71419°
Mean anomaly
346.7284°
Eccentric anomaly
346.7213°
Mean motion
3.89629 °/min
Orbital period
92.4 mins
BSTAR
0.00028124
Loading maneuver chart data...
Computing Atmospheric mass density...
Loading historical data...
Loading historical data...
Loading historical data...
Loading historical data...
Loading historical data...
Loading historical data...
Loading historical data...
Other satellites on launch #35 in the year 2021 (2021-04-29 UTC)

Documentation

Showing up to 5 results
|